Regional Weather Roundup
Issued by NWS State College, PA

Home | Current Version | Previous Version | Graphics & Text | Print | Product List | Glossary On
Versions: 1 2 3 4 5 6 7 8 9 10 11 12 13 14 15 16 17 18 19 20 21 22 23 24 25 26 27 28 29 30 31 32 33 34 35 36 37 38 39 40 41 42 43 44 45 46 47 48 49 50
000
ASUS41 KCTP 231710
RWRCTP
NATIONAL WEATHER SERVICE STATE COLLEGE PA
100 PM EDT SAT SEP 23 2017

Note: "fair" indicates few or no clouds below 12,000 feet with no
significant weather and/or obstructions to visibility.

* = STATION THAT DOES NOT REPORT PRECIPITATION /E.G. RAIN...SNOW...ETC/
    THUNDER OR FOG.

PAZ002>004-007>009-013>016-020>023-029>032-231800-
WESTERN PENNSYLVANIA

CITY           SKY/WX    TMP DP  RH WIND       PRES   REMARKS
ERIE           SUNNY     82  48  30 CALM      30.16F
MEADVILLE      SUNNY     85  47  26 VRB3      30.19S
FRANKLIN*      SUNNY     80  50  34 CALM      30.20S
NEW CASTLE     FAIR      84  52  33 N5        30.17F
BEAVER COUNTY  SUNNY     86  48  26 N7        30.17F
BUTLER*        SUNNY     82  48  30 NE6       30.18S
PITTSBURGH INT MOSUNNY   84  53  34 VRB3      30.16F
PITTSBURGH     SUNNY     80  51  36 VRB3      30.16F
INDIANA*       SUNNY     79  52  38 E3        30.20S
LATROBE        MOSUNNY   79  50  36 CALM      30.18F
WASHINGTON CO* SUNNY     81  55  41 NE3       30.17S
$$

PAZ004>006-010>012-017>019-024>028-033>037-041-042-045-046-049>053-231800-
CENTRAL PENNSYLVANIA

CITY           SKY/WX    TMP DP  RH WIND       PRES   REMARKS
BRADFORD       SUNNY     81  57  43 VRB6      30.21S
DUBOIS         SUNNY     81  48  31 N7        30.18F
CLEARFIELD     SUNNY     82  51  34 CALM      30.17F
JOHNSTOWN      SUNNY     79  49  34 MISG      30.21S
ALTOONA        SUNNY     79  53  40 CALM      30.18S
STATE COLLEGE  SUNNY     79  54  41 CALM      30.16F
WILLIAMSPORT   SUNNY     81  59  47 VRB5      30.10F
SELINSGROVE    SUNNY     80  60  50 VRB3      30.12F
FT INDIANTOWN  SUNNY     82  55  38 CALM      30.10F
CAPITAL CITY   SUNNY     82  51  34 NW10      30.10F
HARRISBURG     MOSUNNY   82  60  47 W9        30.09F
YORK           SUNNY     80  61  52 NW3       30.11F
$$

PAZ038>040-043-044-047-048-054-055-060>062-067>071-231800-
EASTERN PENNSYLVANIA

CITY           SKY/WX    TMP DP  RH WIND       PRES   REMARKS
SCRANTON       SUNNY     78  59  51 NW6       30.13F
MOUNT POCONO   SUNNY     78  51  38 NE10      30.15S
ALLENTOWN      SUNNY     84  55  36 VRB5      30.08F
QUAKERTOWN*    SUNNY     82  61  47 N8        30.09S
READING        SUNNY     83  63  50 N5        30.08F
LANCASTER      SUNNY     84  58  40 N10       30.10S
COATESVILLE    SUNNY     81  61  50 N8        30.11F
POTTSTOWN      SUNNY     81  61  50 VRB7      30.09F
BLUE BELL      SUNNY     81  61  50 NE3       30.08F
DOYLESTOWN     SUNNY     84  61  45 N8        30.06F
WILLOW GROVE   NOT AVBL
NORTH PHILA    SUNNY     86  61  42 N10       30.07S
PHILADELPHIA   MOSUNNY   85  60  42 N13G18    30.05F
$$




USA.gov is the U.S. government's official web portal to all federal, state and local government web resources and services.